timestamp,surface_pressure_avg,surface_temp_avg,battery_voltage,lat,long
2018-09-22 00:00:00+00:00,292.0897,8.6,13.05,47.84626,-54.09684
2018-09-22 00:10:00+00:00,289.8697,8.6,12.97,47.84626,-54.09684
2018-09-22 00:20:00+00:00,281.7547,8.76,13.05,47.84626,-54.09684
2018-09-22 00:30:00+00:00,272.0447,8.9,13.05,47.84626,-54.09684
2018-09-22 00:40:00+00:00,270.8264,8.94,13.05,47.84626,-54.09684
2018-09-22 00:50:00+00:00,266.3847,9.0,13.05,47.84626,-54.09684
2018-09-22 01:00:00+00:00,254.8831,9.09,13.05,47.84626,-54.09684
2018-09-22 01:10:00+00:00,248.9699,9.33,12.97,47.84626,-54.09684
2018-09-22 01:20:00+00:00,247.4914,9.7,13.05,47.84626,-54.09684
2018-09-22 01:30:00+00:00,239.2864,9.9,13.05,47.84626,-54.09684
2018-09-22 01:40:00+00:00,231.6431,10.04,13.05,47.84626,-54.09684
2018-09-22 01:50:00+00:00,229.9415,10.1,13.05,47.84626,-54.09684
2018-09-22 02:00:00+00:00,222.8114,10.24,13.05,47.84626,-54.09684
2018-09-22 02:10:00+00:00,214.6847,10.4,12.97,47.84626,-54.09684
2018-09-22 02:20:00+00:00,213.1314,10.5,13.05,47.84626,-54.09684
2018-09-22 02:30:00+00:00,212.7848,10.6,13.05,47.84626,-54.09684
2018-09-22 02:40:00+00:00,207.5247,10.7,13.05,47.84626,-54.09684
2018-09-22 02:50:00+00:00,206.7264,10.8,13.05,47.84626,-54.09684
2018-09-22 03:00:00+00:00,213.2914,10.9,12.97,47.84626,-54.09684
2018-09-22 03:10:00+00:00,208.2648,10.99,12.89,47.84626,-54.09684
2018-09-22 03:20:00+00:00,203.2264,11.03,12.97,47.84626,-54.09684
2018-09-22 03:30:00+00:00,208.8431,11.09,12.97,47.84626,-54.09684
2018-09-22 03:40:00+00:00,210.3215,10.95,13.05,47.84626,-54.09684
2018-09-22 03:50:00+00:00,207.6181,10.3,13.05,47.84626,-54.09684
2018-09-22 04:00:00+00:00,208.7881,10.3,12.97,47.84626,-54.09684
2018-09-22 04:10:00+00:00,209.1015,10.3,12.89,47.84626,-54.09684
2018-09-22 04:20:00+00:00,206.4665,10.3,12.97,47.84626,-54.09684
2018-09-22 04:30:00+00:00,209.4614,10.33,12.97,47.84626,-54.09684
2018-09-22 04:40:00+00:00,213.5064,10.45,12.97,47.84626,-54.09684
2018-09-22 04:50:00+00:00,212.4098,10.6,13.05,47.84626,-54.09684
2018-09-22 05:00:00+00:00,215.3131,10.63,12.97,47.84626,-54.09684
2018-09-22 05:10:00+00:00,222.173,10.6,12.89,47.84626,-54.09684
2018-09-22 05:20:00+00:00,221.7798,10.6,12.97,47.84626,-54.09684
2018-09-22 05:30:00+00:00,219.6548,10.6,12.97,47.84626,-54.09684
2018-09-22 05:40:00+00:00,220.9114,10.64,12.97,47.84626,-54.09684
2018-09-22 05:50:00+00:00,226.1414,10.7,12.97,47.84626,-54.09684
2018-09-22 06:00:00+00:00,229.4065,10.79,12.97,47.84626,-54.09684
2018-09-22 06:10:00+00:00,231.6231,10.84,12.89,47.84626,-54.09684
2018-09-22 06:20:00+00:00,236.9164,10.8,12.97,47.84626,-54.09684
2018-09-22 06:30:00+00:00,240.9231,10.8,12.97,47.84626,-54.09684
2018-09-22 06:40:00+00:00,245.0581,10.8,12.97,47.84626,-54.09684
2018-09-22 06:50:00+00:00,253.3464,10.79,12.97,47.84626,-54.09684
2018-09-22 07:00:00+00:00,261.6531,10.7,12.97,47.84626,-54.09684
2018-09-22 07:10:00+00:00,266.2897,10.7,12.81,47.84626,-54.09684
2018-09-22 07:20:00+00:00,272.4264,10.69,12.97,47.84626,-54.09684
2018-09-22 07:30:00+00:00,278.3947,10.65,12.97,47.84626,-54.09684
2018-09-22 07:40:00+00:00,278.8814,10.62,12.97,47.84626,-54.09684
2018-09-22 07:50:00+00:00,281.2531,10.6,12.97,47.84626,-54.09684
2018-09-22 08:00:00+00:00,292.7647,10.5,12.89,47.84626,-54.09684
2018-09-22 08:10:00+00:00,297.8831,10.55,12.81,47.84626,-54.09684
2018-09-22 08:20:00+00:00,295.1998,10.59,12.97,47.84626,-54.09684
2018-09-22 08:30:00+00:00,298.7097,10.58,12.97,47.84626,-54.09684
2018-09-22 08:40:00+00:00,306.5847,10.55,12.97,47.84626,-54.09684
2018-09-22 08:50:00+00:00,309.1063,10.54,12.97,47.84626,-54.09684
2018-09-22 09:00:00+00:00,311.4097,10.55,12.89,47.84626,-54.09684
2018-09-22 09:10:00+00:00,315.7064,10.53,12.81,47.84626,-54.09684
2018-09-22 09:20:00+00:00,322.8596,10.58,12.89,47.84626,-54.09684
2018-09-22 09:30:00+00:00,323.6797,10.59,12.97,47.84626,-54.09684
2018-09-22 09:40:00+00:00,325.4063,10.6,12.97,47.84626,-54.09684
2018-09-22 09:50:00+00:00,333.6613,10.61,12.97,47.84626,-54.09684
2018-09-22 10:00:00+00:00,335.7729,10.91,12.89,47.84626,-54.09684
2018-09-22 10:10:00+00:00,331.7029,11.2,12.81,47.84626,-54.09684
2018-09-22 10:20:00+00:00,331.243,11.2,12.89,47.84626,-54.09684
2018-09-22 10:30:00+00:00,336.4213,11.3,12.97,47.84626,-54.09684
2018-09-22 10:40:00+00:00,330.838,11.46,12.97,47.84626,-54.09684
2018-09-22 10:50:00+00:00,331.0163,11.5,12.97,47.84626,-54.09684
2018-09-22 11:00:00+00:00,335.7147,11.5,12.89,47.84626,-54.09684
2018-09-22 11:10:00+00:00,336.9979,11.6,12.81,47.84626,-54.09684
2018-09-22 11:20:00+00:00,331.0946,11.6,12.97,47.84626,-54.09684
2018-09-22 11:30:00+00:00,327.0763,11.5,12.97,47.84626,-54.09684
2018-09-22 11:40:00+00:00,321.0963,11.5,12.97,47.84626,-54.09684
2018-09-22 11:50:00+00:00,311.483,11.49,12.97,47.84626,-54.09684
2018-09-22 12:00:00+00:00,302.6863,11.5,12.97,47.84626,-54.09684
2018-09-22 12:10:00+00:00,302.0113,11.58,12.81,47.84626,-54.09684
2018-09-22 12:20:00+00:00,296.1948,11.6,12.97,47.84626,-54.09684
2018-09-22 12:30:00+00:00,286.533,11.61,12.97,47.84626,-54.09684
2018-09-22 12:40:00+00:00,278.4397,11.6,12.97,47.84626,-54.09684
2018-09-22 12:50:00+00:00,279.9131,11.62,13.05,47.84626,-54.09684
2018-09-22 13:00:00+00:00,278.618,11.6,13.05,47.84626,-54.09684
2018-09-22 13:10:00+00:00,267.9181,11.6,12.89,47.84626,-54.09684
2018-09-22 13:20:00+00:00,258.7947,11.58,12.97,47.84626,-54.09684
2018-09-22 13:30:00+00:00,253.2014,11.6,12.97,47.84626,-54.09684
2018-09-22 13:40:00+00:00,248.1348,11.64,13.05,47.84626,-54.09684
2018-09-22 13:50:00+00:00,242.3598,11.7,13.05,47.84626,-54.09684
2018-09-22 14:00:00+00:00,237.7464,11.7,12.97,47.84626,-54.09684
2018-09-22 14:10:00+00:00,233.6815,11.7,12.89,47.84626,-54.09684
2018-09-22 14:20:00+00:00,229.9014,11.7,12.97,47.84626,-54.09684
2018-09-22 14:30:00+00:00,222.1364,11.7,12.97,47.84626,-54.09684
2018-09-22 14:40:00+00:00,218.7698,11.74,13.05,47.84626,-54.09684
2018-09-22 14:50:00+00:00,221.2064,11.79,13.05,47.84626,-54.09684
2018-09-22 15:00:00+00:00,216.8931,11.78,12.97,47.84626,-54.09684
2018-09-22 15:10:00+00:00,212.1014,11.75,12.89,47.84626,-54.09684
2018-09-22 15:20:00+00:00,216.1398,11.73,12.97,47.84626,-54.09684
2018-09-22 15:30:00+00:00,219.3131,11.7,13.05,47.84626,-54.09684
2018-09-22 15:40:00+00:00,212.5281,11.7,13.05,47.84626,-54.09684
2018-09-22 15:50:00+00:00,208.9131,11.76,13.13,47.84626,-54.09684
2018-09-22 16:00:00+00:00,214.1648,11.8,13.05,47.84626,-54.09684
2018-09-22 16:10:00+00:00,214.4897,11.8,12.97,47.84626,-54.09684
2018-09-22 16:20:00+00:00,213.5981,11.8,13.05,47.84626,-54.09684
2018-09-22 16:30:00+00:00,217.0798,11.81,13.05,47.84626,-54.09684
2018-09-22 16:40:00+00:00,222.8564,11.89,13.13,47.84626,-54.09684
2018-09-22 16:50:00+00:00,225.7931,11.9,13.21,47.84626,-54.09684
2018-09-22 17:00:00+00:00,224.1348,11.9,13.21,47.84626,-54.09684
2018-09-22 17:10:00+00:00,224.7697,11.91,13.05,47.84626,-54.09684
2018-09-22 17:20:00+00:00,231.3164,11.97,13.21,47.84626,-54.09684
2018-09-22 17:30:00+00:00,236.4948,11.99,13.21,47.84626,-54.09684
2018-09-22 17:40:00+00:00,236.0048,11.99,13.21,47.84626,-54.09684
2018-09-22 17:50:00+00:00,239.5997,11.97,13.21,47.84626,-54.09684
2018-09-22 18:00:00+00:00,247.2981,11.98,13.13,47.84626,-54.09684
2018-09-22 18:10:00+00:00,250.1597,11.9,13.05,47.84626,-54.09684
2018-09-22 18:20:00+00:00,246.8097,11.9,13.05,47.84626,-54.09684
2018-09-22 18:30:00+00:00,252.0964,11.9,13.05,47.84626,-54.09684
2018-09-22 18:40:00+00:00,260.193,11.9,13.05,47.84626,-54.09684
2018-09-22 18:50:00+00:00,266.6364,11.9,13.05,47.84626,-54.09684
2018-09-22 19:00:00+00:00,267.2247,11.9,13.05,47.84626,-54.09684
2018-09-22 19:10:00+00:00,271.7014,11.9,12.97,47.84626,-54.09684
2018-09-22 19:20:00+00:00,278.5064,11.9,13.05,47.84626,-54.09684
2018-09-22 19:30:00+00:00,286.3163,11.88,13.05,47.84626,-54.09684
2018-09-22 19:40:00+00:00,286.9614,11.88,13.05,47.84626,-54.09684
2018-09-22 19:50:00+00:00,291.4447,11.88,13.05,47.84626,-54.09684
2018-09-22 20:00:00+00:00,298.4797,11.9,12.97,47.84626,-54.09684
2018-09-22 20:10:00+00:00,306.668,11.9,12.89,47.84626,-54.09684
2018-09-22 20:20:00+00:00,305.3447,11.9,12.97,47.84626,-54.09684
2018-09-22 20:30:00+00:00,310.3013,11.9,12.97,47.84626,-54.09684
2018-09-22 20:40:00+00:00,316.7681,11.9,12.97,47.84626,-54.09684
2018-09-22 20:50:00+00:00,319.0013,11.9,12.97,47.84626,-54.09684
2018-09-22 21:00:00+00:00,319.373,11.9,12.97,47.84626,-54.09684
2018-09-22 21:10:00+00:00,323.1763,11.91,12.89,47.84626,-54.09684
2018-09-22 21:20:00+00:00,325.7863,11.95,12.97,47.84626,-54.09684
2018-09-22 21:30:00+00:00,323.1163,11.95,12.97,47.84626,-54.09684
2018-09-22 21:40:00+00:00,322.1996,11.96,12.97,47.84626,-54.09684
2018-09-22 21:50:00+00:00,329.498,11.98,12.97,47.84626,-54.09684
2018-09-22 22:00:00+00:00,331.9079,11.99,12.97,47.84626,-54.09684
2018-09-22 22:10:00+00:00,329.8363,11.99,12.89,47.84626,-54.09684
2018-09-22 22:20:00+00:00,329.4913,11.99,12.97,47.84626,-54.09684
2018-09-22 22:30:00+00:00,335.8713,11.99,12.97,47.84626,-54.09684
2018-09-22 22:40:00+00:00,334.0497,12.0,12.97,47.84626,-54.09684
2018-09-22 22:50:00+00:00,327.403,12.0,12.97,47.84626,-54.09684
2018-09-22 23:00:00+00:00,329.2197,12.0,12.97,47.84626,-54.09684
2018-09-22 23:10:00+00:00,333.2196,12.0,12.89,47.84626,-54.09684
2018-09-22 23:20:00+00:00,324.363,12.0,12.97,47.84626,-54.09684
2018-09-22 23:30:00+00:00,318.8864,12.0,12.97,47.84626,-54.09684
2018-09-22 23:40:00+00:00,321.598,12.0,12.97,47.84626,-54.09684
2018-09-22 23:50:00+00:00,317.8963,12.0,12.97,47.84626,-54.09684
